This demonstration page uses our WeatherBlox Daily Observations layout. Learn more.

Left ArrowRight Arrow

Hourly Observations for January 6, 2022

Temp ( °F °C ) Dew Point ( °F °C ) Humidity (%) Winds ( mph kmh ) Pressure ( in mb ) Visibility ( mi km ) Precip ( " mm )
12:15 am 00:15 Clear 34 1 32 undefined 93 93 N N/A 29.79 1009 10 16 N/A
12:35 am 00:35 Clear 32 undefined 32 undefined 100 100 N N/A 29.79 1009 10 16 N/A
12:55 am 00:55 Clear 32 undefined 32 undefined 100 100 N N/A 29.80 1009 10 16 N/A
1:15 am 01:15 Clear 32 undefined 32 undefined 100 100 SSW 3 6 29.81 1010 7 11 N/A
1:35 am 01:35 Clear 30 -1 30 -1 100 100 SSW 3 6 29.82 1010 7 11 N/A
1:55 am 01:55 Clear 32 undefined 32 undefined 100 100 SSW 5 7 29.83 1010 10 16 N/A
2:15 am 02:15 Clear 32 undefined 32 undefined 100 100 SSW 5 7 29.84 1011 10 16 N/A
2:35 am 02:35 Clear 30 -1 30 -1 100 100 SW 5 7 29.84 1011 10 16 N/A
2:55 am 02:55 Clear 30 -1 30 -1 100 100 WSW 5 7 29.86 1011 10 16 N/A
3:15 am 03:15 Clear 36 2 30 -1 81 81 W 8 13 29.85 1011 10 16 N/A
3:35 am 03:35 Clear 36 2 28 -2 75 75 W 6 9 29.86 1011 10 16 N/A
3:55 am 03:55 Clear 32 undefined 28 -2 87 87 W 9 15 29.87 1012 10 16 N/A
4:15 am 04:15 Clear 34 1 27 -3 75 75 W 9 15 29.87 1012 10 16 N/A
4:35 am 04:35 Clear 34 1 27 -3 75 75 W 8 13 29.88 1012 10 16 N/A
4:55 am 04:55 Clear 32 undefined 27 -3 80 80 WNW 8 13 29.89 1012 10 16 N/A
5:15 am 05:15 Clear 36 2 23 -5 60 60 WNW 8 13 29.90 1012 10 16 N/A
5:35 am 05:35 Clear 36 2 23 -5 60 60 NNW 5 7 29.92 1013 10 16 N/A
5:55 am 05:55 Clear 37 3 23 -5 56 56 NW 5 7 29.93 1013 10 16 N/A
6:15 am 06:15 Clear 37 3 23 -5 56 56 NNW 3 6 29.93 1013 10 16 N/A
6:35 am 06:35 Clear 36 2 23 -5 60 60 NNW 6 9 29.94 1014 10 16 N/A
6:55 am 06:55 Clear 36 2 23 -5 60 60 NNW 8 13 29.95 1014 10 16 N/A
7:15 am 07:15 Clear 36 2 23 -5 60 60 NNW 12 19 29.96 1015 10 16 N/A
7:35 am 07:35 Sunny 37 3 25 -4 60 60 NW 14 22 29.96 1014 10 16 N/A
7:55 am 07:55 Sunny 36 2 25 -4 65 65 NW 17 28 29.97 1015 10 16 N/A
8:15 am 08:15 Sunny 36 2 25 -4 65 65 NW 17 28 29.99 1016 10 16 N/A
8:35 am 08:35 Sunny 36 2 25 -4 65 65 NNW 15 24 29.99 1016 10 16 N/A
8:55 am 08:55 Sunny 36 2 25 -4 65 65 NNW 9 15 30.00 1016 10 16 N/A
9:15 am 09:15 Sunny 36 2 23 -5 60 60 NNW 7 11 30.01 1016 10 16 N/A
9:35 am 09:35 Sunny 36 2 25 -4 65 65 N N/A 30.02 1017 10 16 N/A
9:55 am 09:55 Sunny 36 2 25 -4 65 65 NW 3 6 30.03 1017 10 16 N/A
10:15 am 10:15 Sunny 36 2 23 -5 60 60 NNW 5 7 30.04 1017 10 16 N/A
10:35 am 10:35 Sunny 37 3 21 -6 52 52 N 5 7 30.04 1017 10 16 N/A
10:55 am 10:55 Sunny 37 3 21 -6 52 52 N 7 11 30.04 1017 10 16 0.01 0.25
11:15 am 11:15 Sunny 37 3 21 -6 52 52 N 5 7 30.03 1017 10 16 N/A
11:35 am 11:35 Sunny 37 3 23 -5 56 56 N 6 9 30.02 1016 10 16 0.01 0.25
11:55 am 11:55 Sunny 37 3 21 -6 52 52 N 5 7 30.00 1016 10 16 0.01 0.25
12:15 pm 12:15 Sunny 37 3 23 -5 56 56 NNW 8 13 30.00 1016 10 16 0.01 0.25
12:55 pm 12:55 Sunny 39 4 21 -6 48 48 NNW 6 9 29.98 1015 10 16 0.02 0.51
1:15 pm 13:15 Sunny 39 4 21 -6 48 48 N 7 11 29.98 1015 10 16 N/A
1:35 pm 13:35 Sunny 41 5 23 -5 49 49 NE 5 7 29.96 1015 10 16 0.01 0.25
1:55 pm 13:55 Sunny 39 4 23 -5 52 52 NW 5 7 29.96 1014 10 16 0.02 0.51
2:15 pm 14:15 Sunny 41 5 21 -6 45 45 NE 3 6 29.94 1014 10 16 N/A
2:35 pm 14:35 Sunny 41 5 23 -5 49 49 NW 5 7 29.95 1014 10 16 0.01 0.25
2:55 pm 14:55 Sunny 41 5 21 -6 45 45 NE 5 7 29.95 1014 10 16 0.01 0.25
3:15 pm 15:15 Sunny 41 5 21 -6 45 45 NNE 3 6 29.96 1015 10 16 0.01 0.25
3:35 pm 15:35 Sunny 39 4 21 -6 48 48 NE 5 7 29.97 1015 10 16 0.01 0.25
4:55 pm 16:55 Mostly Cloudy 37 3 23 -5 56 56 NE 3 6 29.97 1015 10 16 N/A
5:35 pm 17:35 Mostly Cloudy 37 3 23 -5 56 56 NE 6 9 29.97 1015 10 16 N/A
5:55 pm 17:55 Cloudy 37 3 23 -5 56 56 N N/A 29.99 1015 10 16 N/A
6:15 pm 18:15 Cloudy 36 2 23 -5 60 60 ENE 3 6 29.96 1015 10 16 N/A
6:35 pm 18:35 Mostly Cloudy 36 2 23 -5 60 60 ENE 3 6 29.94 1014 10 16 N/A
6:55 pm 18:55 Mostly Cloudy 36 2 23 -5 60 60 N N/A 29.95 1014 10 16 N/A
7:35 pm 19:35 Mostly Cloudy 36 2 25 -4 65 65 N N/A 29.94 1014 10 16 N/A
7:55 pm 19:55 Cloudy 36 2 27 -3 70 70 NNE 6 9 29.94 1014 10 16 N/A
8:15 pm 20:15 Cloudy 36 2 27 -3 70 70 NNE 7 11 29.91 1013 10 16 N/A
8:35 pm 20:35 Cloudy 36 2 27 -3 70 70 NNE 7 11 29.90 1012 10 16 N/A
8:55 pm 20:55 Cloudy 36 2 27 -3 70 70 NNE 8 13 29.90 1012 10 16 N/A
9:15 pm 21:15 Cloudy 36 2 25 -4 65 65 NNE 7 11 29.90 1012 10 16 N/A
9:35 pm 21:35 Cloudy 36 2 25 -4 65 65 NE 6 9 29.88 1012 10 16 N/A
9:55 pm 21:55 Cloudy 36 2 25 -4 65 65 NNE 6 9 29.89 1012 10 16 N/A
10:15 pm 22:15 Cloudy 34 1 28 -2 81 81 NNE 6 9 29.89 1012 10 16 N/A
10:35 pm 22:35 Cloudy 34 1 28 -2 81 81 NNE 5 7 29.87 1012 10 16 N/A
10:55 pm 22:55 Cloudy 34 1 30 -1 87 87 NE 6 9 29.86 1011 10 16 N/A
11:15 pm 23:15 Cloudy 34 1 30 -1 87 87 NNE 7 11 29.84 1010 10 16 N/A
11:35 pm 23:35 Cloudy 32 undefined 32 undefined 100 100 N 9 15 29.84 1011 10 16 N/A
11:55 pm 23:55 Cloudy with Light Wintry Mix 32 undefined 32 undefined 100 100 N 10 17 29.84 1011 7 11 N/A

Powered by AerisWeather